Time,TemperatureF,DewpointF,PressureIn,WindDirection,WindDirectionDegrees,WindSpeedMPH,WindSpeedGustMPH,Humidity,HourlyPrecipIn,Conditions,Clouds,dailyrainin,SoftwareType,DateUTC
2013-07-18 00:02:00,70.0,59.0,-100.00,East,80,7.0,9.0,69,-99.99,,,-99.99,,2013-07-18 05:02:00,
2013-07-18 00:11:00,70.0,59.0,-100.00,East,80,7.0,9.0,69,-99.99,,,-99.99,,2013-07-18 05:11:00,
2013-07-18 00:22:00,70.0,59.0,-100.00,East,80,7.0,9.0,69,-99.99,,,-99.99,,2013-07-18 05:22:00,
2013-07-18 00:32:00,70.0,59.0,-100.00,East,80,7.0,9.0,69,-99.99,,,-99.99,,2013-07-18 05:32:00,
2013-07-18 01:01:00,69.0,62.0,-100.00,NE,40,4.0,7.0,77,-99.99,,,-99.99,,2013-07-18 06:01:00,
2013-07-18 01:12:00,69.0,62.0,-100.00,NE,40,4.0,7.0,77,-99.99,,,-99.99,,2013-07-18 06:12:00,
2013-07-18 01:22:00,69.0,62.0,-100.00,NE,40,4.0,7.0,77,-99.99,,,-99.99,,2013-07-18 06:22:00,
2013-07-18 01:43:00,69.0,62.0,-100.00,NE,50,4.0,7.0,79,-99.99,,,-99.99,,2013-07-18 06:43:00,
2013-07-18 01:52:00,69.0,62.0,-100.00,NE,50,4.0,7.0,79,-99.99,,,-99.99,,2013-07-18 06:52:00,
2013-07-18 02:01:00,69.0,63.0,-100.00,NE,50,4.0,6.0,82,-99.99,,,-99.99,,2013-07-18 07:01:00,
2013-07-18 02:12:00,69.0,63.0,-100.00,NE,50,4.0,6.0,82,-99.99,,,-99.99,,2013-07-18 07:12:00,
2013-07-18 02:22:00,69.0,63.0,-100.00,NE,50,4.0,6.0,82,-99.99,,,-99.99,,2013-07-18 07:22:00,
2013-07-18 02:42:00,68.0,63.0,-100.00,ENE,65,5.0,10.0,84,-99.99,,,-99.99,,2013-07-18 07:42:00,
2013-07-18 02:52:00,68.0,63.0,-100.00,ENE,65,5.0,10.0,84,-99.99,,,-99.99,,2013-07-18 07:52:00,
2013-07-18 03:01:00,68.0,62.0,-100.00,North,350,6.0,9.0,82,-99.99,,,-99.99,,2013-07-18 08:01:00,
2013-07-18 03:11:00,68.0,62.0,-100.00,North,350,6.0,9.0,82,-99.99,,,-99.99,,2013-07-18 08:11:00,
2013-07-18 03:21:00,68.0,62.0,-100.00,North,350,6.0,9.0,82,-99.99,,,-99.99,,2013-07-18 08:21:00,
2013-07-18 03:42:00,66.0,63.0,-100.00,North,350,12.0,16.0,88,-99.99,,,-99.99,,2013-07-18 08:42:00,
2013-07-18 03:52:00,66.0,63.0,-100.00,North,350,12.0,16.0,88,-99.99,,,-99.99,,2013-07-18 08:52:00,
2013-07-18 04:01:00,65.0,64.0,-100.00,NE,35,9.0,15.0,97,-99.99,,,-99.99,,2013-07-18 09:01:00,
2013-07-18 04:11:00,65.0,64.0,-100.00,NE,35,9.0,15.0,97,-99.99,,,-99.99,,2013-07-18 09:11:00,
2013-07-18 04:21:00,65.0,64.0,-100.00,NE,35,9.0,15.0,97,-99.99,,,-99.99,,2013-07-18 09:21:00,
2013-07-18 04:42:00,65.0,64.0,-100.00,ENE,75,7.0,11.0,98,-99.99,,,-99.99,,2013-07-18 09:42:00,
2013-07-18 04:51:00,65.0,64.0,-100.00,ENE,75,7.0,11.0,98,-99.99,,,-99.99,,2013-07-18 09:51:00,
2013-07-18 05:01:00,65.0,65.0,-100.00,ENE,60,6.0,11.0,98,-99.99,,,-99.99,,2013-07-18 10:01:00,
2013-07-18 05:11:00,65.0,65.0,-100.00,ENE,60,6.0,11.0,98,-99.99,,,-99.99,,2013-07-18 10:11:00,
2013-07-18 05:21:00,65.0,65.0,-100.00,ENE,60,6.0,11.0,98,-99.99,,,-99.99,,2013-07-18 10:21:00,
2013-07-18 05:32:00,65.0,65.0,-100.00,ENE,60,6.0,11.0,98,-99.99,,,-99.99,,2013-07-18 10:32:00,
2013-07-18 06:01:00,69.0,66.0,-100.00,East,85,6.0,9.0,92,-99.99,,,-99.99,,2013-07-18 11:01:00,
2013-07-18 06:11:00,69.0,66.0,-100.00,East,85,6.0,9.0,92,-99.99,,,-99.99,,2013-07-18 11:11:00,
2013-07-18 06:22:00,69.0,66.0,-100.00,East,85,6.0,9.0,92,-99.99,,,-99.99,,2013-07-18 11:22:00,
2013-07-18 06:43:00,69.0,67.0,-100.00,East,85,5.0,10.0,92,-99.99,,,-99.99,,2013-07-18 11:43:00,
2013-07-18 06:52:00,69.0,67.0,-100.00,East,85,5.0,10.0,92,-99.99,,,-99.99,,2013-07-18 11:52:00,
2013-07-18 07:01:00,69.0,67.0,-100.00,East,90,4.0,10.0,94,-99.99,,,-99.99,,2013-07-18 12:01:00,
2013-07-18 07:11:00,69.0,67.0,-100.00,East,90,4.0,10.0,94,-99.99,,,-99.99,,2013-07-18 12:11:00,
2013-07-18 07:22:00,69.0,67.0,-100.00,East,90,4.0,10.0,94,-99.99,,,-99.99,,2013-07-18 12:22:00,
2013-07-18 07:42:00,67.0,66.0,-100.00,North,355,7.0,11.0,99,-99.99,,,-99.99,,2013-07-18 12:42:00,
2013-07-18 07:52:00,67.0,66.0,-100.00,North,355,7.0,11.0,99,-99.99,,,-99.99,,2013-07-18 12:52:00,
2013-07-18 08:01:00,68.0,68.0,-100.00,ENE,65,3.0,6.0,99,-99.99,,,-99.99,,2013-07-18 13:01:00,
2013-07-18 08:11:00,68.0,68.0,-100.00,ENE,65,3.0,6.0,99,-99.99,,,-99.99,,2013-07-18 13:11:00,
2013-07-18 08:22:00,68.0,68.0,-100.00,ENE,65,3.0,6.0,99,-99.99,,,-99.99,,2013-07-18 13:22:00,
2013-07-18 08:43:00,67.0,67.0,-100.00,NNE,30,9.0,12.0,99,-99.99,,,-99.99,,2013-07-18 13:43:00,
2013-07-18 08:53:00,67.0,67.0,-100.00,NNE,30,9.0,12.0,99,-99.99,,,-99.99,,2013-07-18 13:53:00,
2013-07-18 09:02:00,65.0,65.0,-100.00,NNE,20,12.0,22.0,99,-99.99,,,-99.99,,2013-07-18 14:02:00,
2013-07-18 09:11:00,65.0,65.0,-100.00,NNE,20,12.0,22.0,99,-99.99,,,-99.99,,2013-07-18 14:11:00,
2013-07-18 09:22:00,65.0,65.0,-100.00,NNE,20,12.0,22.0,99,-99.99,,,-99.99,,2013-07-18 14:22:00,
2013-07-18 09:33:00,68.0,67.0,-100.00,East,90,7.0,12.0,98,-99.99,,,-99.99,,2013-07-18 14:33:00,
2013-07-18 09:43:00,68.0,67.0,-100.00,East,90,7.0,12.0,98,-99.99,,,-99.99,,2013-07-18 14:43:00,
2013-07-18 09:53:00,68.0,67.0,-100.00,East,90,7.0,12.0,98,-99.99,,,-99.99,,2013-07-18 14:53:00,
2013-07-18 10:01:00,71.0,68.0,-100.00,ENE,75,7.0,13.0,91,-99.99,,,-99.99,,2013-07-18 15:01:00,
2013-07-18 10:11:00,71.0,68.0,-100.00,ENE,75,7.0,13.0,91,-99.99,,,-99.99,,2013-07-18 15:11:00,
2013-07-18 10:22:00,71.0,68.0,-100.00,ENE,75,7.0,13.0,91,-99.99,,,-99.99,,2013-07-18 15:22:00,
2013-07-18 10:43:00,73.0,69.0,-100.00,East,85,6.0,11.0,88,-99.99,,,-99.99,,2013-07-18 15:43:00,
2013-07-18 10:53:00,73.0,69.0,-100.00,East,85,6.0,11.0,88,-99.99,,,-99.99,,2013-07-18 15:53:00,
2013-07-18 11:01:00,76.0,70.0,-100.00,ESE,110,7.0,10.0,82,-99.99,,,-99.99,,2013-07-18 16:01:00,
2013-07-18 11:11:00,76.0,70.0,-100.00,ESE,110,7.0,10.0,82,-99.99,,,-99.99,,2013-07-18 16:11:00,
2013-07-18 11:22:00,76.0,70.0,-100.00,ESE,110,7.0,10.0,82,-99.99,,,-99.99,,2013-07-18 16:22:00,
2013-07-18 11:42:00,79.0,71.0,-100.00,ESE,115,6.0,10.0,77,-99.99,,,-99.99,,2013-07-18 16:42:00,
2013-07-18 11:52:00,79.0,71.0,-100.00,ESE,115,6.0,10.0,77,-99.99,,,-99.99,,2013-07-18 16:52:00,
2013-07-18 12:02:00,81.0,72.0,-100.00,SE,130,4.0,10.0,72,-99.99,,,-99.99,,2013-07-18 17:02:00,
2013-07-18 12:11:00,81.0,72.0,-100.00,SE,130,4.0,10.0,72,-99.99,,,-99.99,,2013-07-18 17:11:00,
2013-07-18 12:22:00,81.0,72.0,-100.00,SE,130,4.0,10.0,72,-99.99,,,-99.99,,2013-07-18 17:22:00,
2013-07-18 12:33:00,82.0,71.0,-100.00,SSW,210,3.0,10.0,69,-99.99,,,-99.99,,2013-07-18 17:33:00,
2013-07-18 12:43:00,82.0,71.0,-100.00,SSW,210,3.0,10.0,69,-99.99,,,-99.99,,2013-07-18 17:43:00,
2013-07-18 12:52:00,82.0,71.0,-100.00,SSW,210,3.0,10.0,69,-99.99,,,-99.99,,2013-07-18 17:52:00,
2013-07-18 13:01:00,82.0,71.0,-100.00,SSW,210,3.0,10.0,69,-99.99,,,-99.99,,2013-07-18 18:01:00,
2013-07-18 14:02:00,83.0,72.0,-100.00,WSW,255,7.0,13.0,70,-99.99,,,-99.99,,2013-07-18 19:02:00,
2013-07-18 14:11:00,83.0,72.0,-100.00,WSW,255,7.0,13.0,70,-99.99,,,-99.99,,2013-07-18 19:11:00,
2013-07-18 14:22:00,83.0,72.0,-100.00,WSW,255,7.0,13.0,70,-99.99,,,-99.99,,2013-07-18 19:22:00,
2013-07-18 14:43:00,82.0,72.0,-100.00,WSW,250,5.0,12.0,71,-99.99,,,-99.99,,2013-07-18 19:43:00,
2013-07-18 14:53:00,82.0,72.0,-100.00,WSW,250,5.0,12.0,71,-99.99,,,-99.99,,2013-07-18 19:53:00,
2013-07-18 15:01:00,84.0,72.0,-100.00,West,265,6.0,11.0,67,-99.99,,,-99.99,,2013-07-18 20:01:00,
2013-07-18 15:11:00,84.0,72.0,-100.00,West,265,6.0,11.0,67,-99.99,,,-99.99,,2013-07-18 20:11:00,
2013-07-18 15:22:00,84.0,72.0,-100.00,West,265,6.0,11.0,67,-99.99,,,-99.99,,2013-07-18 20:22:00,
2013-07-18 15:43:00,85.0,72.0,-100.00,West,260,9.0,12.0,65,-99.99,,,-99.99,,2013-07-18 20:43:00,
2013-07-18 15:52:00,85.0,72.0,-100.00,West,260,9.0,12.0,65,-99.99,,,-99.99,,2013-07-18 20:52:00,
2013-07-18 16:01:00,85.0,72.0,-100.00,West,260,9.0,12.0,65,-99.99,,,-99.99,,2013-07-18 21:01:00,
2013-07-18 17:01:00,84.0,76.0,-100.00,NNE,25,7.0,11.0,77,-99.99,,,-99.99,,2013-07-18 22:01:00,
2013-07-18 17:11:00,84.0,76.0,-100.00,NNE,25,7.0,11.0,77,-99.99,,,-99.99,,2013-07-18 22:11:00,
2013-07-18 17:22:00,84.0,76.0,-100.00,NNE,25,7.0,11.0,77,-99.99,,,-99.99,,2013-07-18 22:22:00,
2013-07-18 17:43:00,85.0,76.0,-100.00,North,350,6.0,10.0,75,-99.99,,,-99.99,,2013-07-18 22:43:00,
2013-07-18 17:53:00,85.0,76.0,-100.00,North,350,6.0,10.0,75,-99.99,,,-99.99,,2013-07-18 22:53:00,
2013-07-18 18:02:00,85.0,76.0,-100.00,NW,315,6.0,14.0,74,-99.99,,,-99.99,,2013-07-18 23:02:00,
2013-07-18 18:11:00,85.0,76.0,-100.00,NW,315,6.0,14.0,74,-99.99,,,-99.99,,2013-07-18 23:11:00,
2013-07-18 18:22:00,85.0,76.0,-100.00,NW,315,6.0,14.0,74,-99.99,,,-99.99,,2013-07-18 23:22:00,
2013-07-18 18:42:00,86.0,76.0,-100.00,NW,325,9.0,12.0,72,-99.99,,,-99.99,,2013-07-18 23:42:00,
2013-07-18 18:52:00,86.0,76.0,-100.00,NW,325,9.0,12.0,72,-99.99,,,-99.99,,2013-07-18 23:52:00,
2013-07-18 19:01:00,85.0,75.0,-100.00,WNW,290,7.0,14.0,72,-99.99,,,-99.99,,2013-07-19 00:01:00,
2013-07-18 19:11:00,85.0,75.0,-100.00,WNW,290,7.0,14.0,72,-99.99,,,-99.99,,2013-07-19 00:11:00,
2013-07-18 19:22:00,85.0,75.0,-100.00,WNW,290,7.0,14.0,72,-99.99,,,-99.99,,2013-07-19 00:22:00,
2013-07-18 19:43:00,84.0,73.0,-100.00,WNW,300,11.0,19.0,69,-99.99,,,-99.99,,2013-07-19 00:43:00,
2013-07-18 19:52:00,84.0,73.0,-100.00,WNW,300,11.0,19.0,69,-99.99,,,-99.99,,2013-07-19 00:52:00,
2013-07-18 20:01:00,84.0,73.0,-100.00,WNW,290,9.0,14.0,70,-99.99,,,-99.99,,2013-07-19 01:01:00,
2013-07-18 20:11:00,84.0,73.0,-100.00,WNW,290,9.0,14.0,70,-99.99,,,-99.99,,2013-07-19 01:11:00,
2013-07-18 20:22:00,84.0,73.0,-100.00,WNW,290,9.0,14.0,70,-99.99,,,-99.99,,2013-07-19 01:22:00,
2013-07-18 20:32:00,82.0,73.0,-100.00,WNW,295,9.0,16.0,74,-99.99,,,-99.99,,2013-07-19 01:32:00,
2013-07-18 20:42:00,82.0,73.0,-100.00,WNW,295,9.0,16.0,74,-99.99,,,-99.99,,2013-07-19 01:42:00,
2013-07-18 20:52:00,82.0,73.0,-100.00,WNW,295,9.0,16.0,74,-99.99,,,-99.99,,2013-07-19 01:52:00,
2013-07-18 21:01:00,81.0,73.0,-100.00,WNW,300,11.0,15.0,76,-99.99,,,-99.99,,2013-07-19 02:01:00,
2013-07-18 21:11:00,81.0,73.0,-100.00,WNW,300,11.0,15.0,76,-99.99,,,-99.99,,2013-07-19 02:11:00,
2013-07-18 21:22:00,81.0,73.0,-100.00,WNW,300,11.0,15.0,76,-99.99,,,-99.99,,2013-07-19 02:22:00,
2013-07-18 21:43:00,79.0,73.0,-100.00,WNW,295,8.0,13.0,81,-99.99,,,-99.99,,2013-07-19 02:43:00,
2013-07-18 21:52:00,79.0,73.0,-100.00,WNW,295,8.0,13.0,81,-99.99,,,-99.99,,2013-07-19 02:52:00,
2013-07-18 22:01:00,78.0,73.0,-100.00,WNW,295,6.0,9.0,85,-99.99,,,-99.99,,2013-07-19 03:01:00,
2013-07-18 22:11:00,78.0,73.0,-100.00,WNW,295,6.0,9.0,85,-99.99,,,-99.99,,2013-07-19 03:11:00,
2013-07-18 22:22:00,78.0,73.0,-100.00,WNW,295,6.0,9.0,85,-99.99,,,-99.99,,2013-07-19 03:22:00,
2013-07-18 22:43:00,76.0,72.0,-100.00,West,280,3.0,6.0,90,-99.99,,,-99.99,,2013-07-19 03:43:00,
2013-07-18 22:52:00,76.0,72.0,-100.00,West,280,3.0,6.0,90,-99.99,,,-99.99,,2013-07-19 03:52:00,
2013-07-18 23:02:00,74.0,72.0,-100.00,NW,315,4.0,9.0,94,-99.99,,,-99.99,,2013-07-19 04:02:00,
2013-07-18 23:12:00,74.0,72.0,-100.00,NW,315,4.0,9.0,94,-99.99,,,-99.99,,2013-07-19 04:12:00,
2013-07-18 23:22:00,74.0,72.0,-100.00,NW,315,4.0,9.0,94,-99.99,,,-99.99,,2013-07-19 04:22:00,
2013-07-18 23:33:00,74.0,72.0,-100.00,NW,315,4.0,9.0,94,-99.99,,,-99.99,,2013-07-19 04:33:00,